This is the latest recevied weather packets stored in our database for station/object K1PM-WX. If no packets are shown the sender has not sent any weather packets the latest 1 day(s).
| Time | Temp. | Humidity | Pressure | Rain* | Wind** | Luminosity | Snow |
|---|---|---|---|---|---|---|---|
| 1777974838 | 16.67° C | 81% | 1023 hPa | 0 mm | 4.02 m/s, 180° | - | - |
| 1777974536 | 16.67° C | 82% | 1023 hPa | 0 mm | 2.68 m/s, 203° | - | - |
| 1777974236 | 16.67° C | 83% | 1023 hPa | 0 mm | 3.58 m/s, 203° | - | - |
| 1777973937 | 16.11° C | 84% | 1023 hPa | 0 mm | 2.68 m/s, 248° | - | - |
| 1777973636 | 16.11° C | 85% | 1023 hPa | 0 mm | 3.13 m/s, 158° | - | - |
| 1777973338 | 16.11° C | 86% | 1023 hPa | 0 mm | 2.68 m/s, 248° | - | - |
| 1777973036 | 15.56° C | 87% | 1023 hPa | 0 mm | 4.02 m/s, 180° | - | - |
| 1777972736 | 15.56° C | 88% | 1023 hPa | 0 mm | 1.79 m/s, 180° | - | - |
| 1777972436 | 15.56° C | 89% | 1023 hPa | 0 mm | 1.34 m/s, 203° | - | - |
| 1777972136 | 15° C | 90% | 1023 hPa | 0 mm | 3.58 m/s, 158° | - | - |
| 1777971837 | 15° C | 91% | 1023 hPa | 0 mm | 2.68 m/s, 135° | - | - |
| 1777971537 | 14.44° C | 93% | 1023 hPa | 0 mm | 2.24 m/s, 158° | - | - |
| 1777971236 | 14.44° C | 95% | 1023 hPa | 0 mm | 1.79 m/s, 158° | - | - |
| 1777970936 | 14.44° C | 95% | 1023 hPa | 0 mm | 0.89 m/s, 113° | - | - |
| 1777970637 | 13.89° C | 96% | 1023 hPa | 0 mm | 0.89 m/s, 180° | - | - |
| 1777970337 | 13.89° C | 97% | 1023 hPa | 0 mm | 1.79 m/s, 180° | - | - |
| 1777970037 | 13.89° C | 99% | 1023 hPa | 0 mm | 0.89 m/s, 203° | - | - |
| 1777969736 | 13.33° C | 99% | 1023 hPa | 0 mm | 1.34 m/s, 203° | - | - |
| 1777969436 | 13.33° C | 99% | 1023 hPa | 0 mm | 1.79 m/s, 203° | - | - |
| 1777969137 | 12.78° C | 99% | 1023 hPa | 0 mm | 1.34 m/s, 158° | - | - |
| 1777968836 | 12.78° C | 99% | 1024 hPa | 0 mm | 0.45 m/s, 180° | - | - |
| 1777968537 | 12.22° C | 99% | 1024 hPa | 0 mm | 0.89 m/s, 158° | - | - |
| 1777968236 | 12.22° C | 99% | 1024 hPa | 0 mm | 0.89 m/s, 113° | - | - |
| 1777967936 | 12.22° C | 99% | 1024 hPa | 0 mm | 0.45 m/s, 113° | - | - |
| 1777967637 | 12.22° C | 99% | 1024 hPa | 0 mm | 0.89 m/s, 113° | - | - |
* Rain latest hour (hover to see other rain measurements)
** Current wind speed in m/s (hover to see current wind gust speed)